EW7157 Weather Reports


time (UTC)temp
C
wind
direction
speed
KPH
gust
KPH
rain 1hr
cm
rain 24hr
cm
rain mn
cm
humidity
%
barometer
mb
20260505034822 15 180 0.0 0.0 0.00 0.00 0.00 57 1032.6
20260505034723 15 180 0.0 0.0 0.00 0.00 0.00 56 1032.6
20260505033722 15 233 0.0 0.0 0.00 0.00 0.00 53 1032.6
20260505031726 15 180 0.0 0.0 0.00 0.00 0.00 52 1032.8
20260505030824 15 315 0.0 1.6 0.00 0.00 0.00 54 1032.7
20260505025922 15 315 0.0 0.0 0.00 0.00 0.00 54 1032.7
20260505024924 16 315 0.0 0.0 0.00 0.00 0.00 52 1032.9
20260505023926 15 315 0.0 0.0 0.00 0.00 0.00 54 1033.0
20260505022022 16 270 0.0 0.0 0.00 0.00 0.00 54 1033.0
20260505021024 16 360 0.0 1.6 0.00 0.00 0.00 54 1033.0
20260505020023 16 360 0.0 0.0 0.00 0.00 0.00 52 1032.9
20260505015923 16 360 0.0 0.0 0.00 0.00 0.00 52 1033.0
20260505015825 16 360 0.0 0.0 0.00 0.00 0.00 51 1032.9
20260505014826 16 360 0.0 3.2 0.00 0.00 0.00 51 1033.0
20260505013924 16 337 0.0 1.6 0.00 0.00 0.00 52 1033.0
20260505013823 16 337 0.0 0.0 0.00 0.00 0.00 53 1032.9
20260505010922 15 112 0.0 0.0 0.00 0.00 0.00 57 1032.6
20260505005923 15 112 0.0 0.0 0.00 0.00 0.00 54 1032.6
20260505003925 16 112 0.0 0.0 0.00 0.00 0.00 49 1032.3
20260505002923 17 112 0.0 0.0 0.00 0.00 0.00 46 1032.2
20260505001926 17 112 0.0 0.0 0.00 0.00 0.00 44 1032.1
20260505000825 18 112 0.0 0.0 0.00 0.00 0.00 41 1032.2
20260504233823 19 112 0.0 0.0 0.00 0.00 0.00 37 1031.8
20260504231823 20 45 0.0 3.2 0.00 0.00 0.00 38 1031.8
20260504225825 20 45 0.0 0.0 0.00 0.00 0.00 36 1031.7
20260504225724 20 45 0.0 0.0 0.00 0.00 0.00 35 1031.7
20260504224822 20 360 0.0 0.0 0.00 0.00 0.00 34 1031.7
20260504224724 20 360 0.0 1.6 0.00 0.00 0.00 35 1031.6
20260504223724 20 360 0.0 9.7 0.00 0.00 0.00 35 1031.7
20260504222725 20 315 0.0 1.6 0.00 0.00 0.00 35 1031.8
20260504222627 20 315 0.0 1.6 0.00 0.00 0.00 36 1031.8
20260504221624 21 315 0.0 0.0 0.00 0.00 0.00 35 1031.8
20260504220624 21 352 0.0 4.8 0.00 0.00 0.00 35 1031.8
20260504220524 21 360 0.0 0.0 0.00 0.00 0.00 35 1031.8
20260504215524 21 134 0.0 3.2 0.00 0.00 0.00 34 1031.9
20260504214524 21 135 0.0 3.2 0.00 0.00 0.00 33 1032.1
20260504214424 21 135 0.0 0.0 0.00 0.00 0.00 34 1032.0
20260504213423 21 75 0.0 4.8 0.00 0.00 0.00 32 1032.0
20260504212422 21 180 0.0 0.0 0.00 0.00 0.00 32 1032.1
20260504212323 21 180 0.0 0.0 0.00 0.00 0.00 33 1032.0
20260504211422 22 45 0.0 1.6 0.00 0.00 0.00 31 1032.0
20260504210425 22 18 0.0 0.0 0.00 0.00 0.00 31 1031.9
20260504205424 22 45 0.0 0.0 0.00 0.00 0.00 30 1032.1
20260504205325 22 45 0.0 1.6 0.00 0.00 0.00 30 1032.1
20260504203425 24 272 0.0 1.6 0.00 0.00 0.00 28 1032.1
20260504202424 24 177 0.0 6.4 0.00 0.00 0.00 27 1032.1
20260504202324 24 180 0.0 0.0 0.00 0.00 0.00 26 1032.1
20260504202222 24 180 0.0 3.2 0.00 0.00 0.00 27 1032.0
20260504201224 25 14 1.6 8.0 0.00 0.00 0.00 26 1032.2
20260504200323 25 153 0.0 3.2 0.00 0.00 0.00 27 1032.2
20260504200224 25 213 1.6 14.5 0.00 0.00 0.00 27 1032.2
20260504194322 25 360 0.0 0.0 0.00 0.00 0.00 26 1032.2
20260504192322 25 79 0.0 3.2 0.00 0.00 0.00 27 1032.5
20260504191422 24 261 0.0 1.6 0.00 0.00 0.00 26 1032.5
20260504185423 24 360 0.0 0.0 0.00 0.00 0.00 26 1032.8
20260504184423 24 307 1.6 4.8 0.00 0.00 0.00 27 1033.0
20260504183424 25 2 0.0 0.0 0.00 0.00 0.00 28 1033.2
20260504182423 24 45 0.0 0.0 0.00 0.00 0.00 29 1033.3
20260504181426 23 247 0.0 1.6 0.00 0.00 0.00 28 1033.3
20260504175423 23 24 0.0 1.6 0.00 0.00 0.00 29 1033.7
20260504174424 23 32 0.0 3.2 0.00 0.00 0.00 29 1033.9
20260504173424 23 235 0.0 6.4 0.00 0.00 0.00 28 1034.0
20260504172523 23 337 0.0 1.6 0.00 0.00 0.00 29 1034.1
20260504171523 23 157 0.0 1.6 0.00 0.00 0.00 28 1034.2
20260504170523 23 45 0.0 1.6 0.00 0.00 0.00 30 1034.3
20260504160424 22 135 0.0 0.0 0.00 0.00 0.00 31 1035.3
20260504150425 21 247 0.0 1.6 0.00 0.00 0.00 34 1036.0
20260504140424 19 312 0.0 1.6 0.00 0.00 0.00 44 1036.0
20260504130433 14 266 0.0 3.2 0.00 0.00 0.00 61 1036.6
20260504081922 6 135 0.0 0.0 0.00 0.00 0.00 68 1036.5
20260504080924 6 135 0.0 0.0 0.00 0.00 0.00 68 1036.5
20260504050023 7 135 0.0 0.0 0.00 0.00 0.00 58 1036.3
20260504045024 7 135 0.0 0.0 0.00 0.00 0.00 60 1036.3
20260504044025 7 135 0.0 0.0 0.00 0.00 0.00 60 1036.4
20260504043024 7 135 0.0 0.0 0.00 0.00 0.00 60 1036.2
20260504042023 7 135 0.0 0.0 0.00 0.00 0.00 59 1036.2
20260504041024 7 135 0.0 0.0 0.00 0.00 0.00 59 1036.0
20260504040036 7 135 0.0 0.0 0.00 0.00 0.00 59 1036.0
20260504035028 7 135 0.0 0.0 0.00 0.00 0.00 58 1036.0